Weather History for KAKO - September, 2013

Change the Weather History Date:

Wednesday, September 25, 2013

  Actual Average Record
Temperature  
Mean Temperature 63 °F 59 °F  
Max Temperature 84 °F 73 °F 90 °F (1964)
Min Temperature 41 °F 45 °F 26 °F (1942)
Degree Days  
Heating Degree Days 2    
Month to date heating degree days 54  
Cooling Degree Days 0    
Month to date cooling degree days 145  
Growing Degree Days 12 (Base 50)    
Moisture  
Dew Point 41 °F    
Average Humidity 56    
Maximum Humidity 96    
Minimum Humidity 15    
Precipitation  
Precipitation 0.00 in 0.03 in 0.50 in (1973)
Month to date precipitation 4.09 0.97  
Year to date precipitation 15.51 14.46  
Sea Level Pressure  
Sea Level Pressure 29.56 in    
Wind  
Wind Speed 14 mph (South)    
Max Wind Speed 29 mph    
Max Gust Speed 40 mph    
Visibility 10 miles    
Events      
T = Trace of Precipitation, MM = Missing Value Source: NWS Daily Summary

Daily Weather History Graph

Daily Weather History Graph

Search for Another Location

Airport or City:

Trip Planner

Search our weather history database for the weather conditions in past years. The results will help you decide how hot, cold, wet, or windy it might be!

Date:

Astronomy

Sep. 25, 2013 Rise Set
Actual Time 6:43 AM MDT 6:44 PM MDT
Civil Twilight 6:16 AM MDT 7:11 PM MDT
Nautical Twilight 5:44 AM MDT 7:43 PM MDT
Astronomical Twilight 5:12 AM MDT 8:15 PM MDT
Moon 10:52 PM MDT (9/25) 12:51 PM MDT (9/25)
Length of Visible Light 12h 54m
Length of Day
12h 00m
Waning Gibbous, 63% of the Moon is Illuminated
Sep 25
Waning Gibbous
Sep 26
Last Quarter
Oct 4
New
Oct 11
First Quarter
Oct 18
Full

Hourly Weather History & Observations

Time (MDT) Temp. Windchill Dew Point Humidity Pressure Visibility Wind Dir Wind Speed Gust Speed Precip Events Conditions
12:53 AM 52.0 °F - 39.9 °F 63% 29.79 in 10.0 mi SSE 15.0 mph 21.9 mph N/A   Clear
1:53 AM 50.0 °F - 39.9 °F 68% 29.76 in 10.0 mi SE 12.7 mph - N/A   Clear
2:53 AM 48.9 °F - 41.0 °F 74% 29.73 in 10.0 mi SE 11.5 mph - N/A   Clear
3:53 AM 46.9 °F - 41.0 °F 80% 29.71 in 10.0 mi SE 12.7 mph - N/A   Clear
4:53 AM 48.0 °F - 42.1 °F 80% 29.70 in 10.0 mi SSW 5.8 mph - N/A   Clear
5:53 AM 46.0 °F 42.5 °F 42.1 °F 86% 29.70 in 10.0 mi South 6.9 mph - N/A   Clear
6:53 AM 43.0 °F - 41.0 °F 93% 29.74 in 10.0 mi Calm Calm - N/A   Clear
7:53 AM 48.9 °F - 44.1 °F 83% 29.71 in 10.0 mi SSE 8.1 mph - N/A   Clear
8:53 AM 59.0 °F - 46.0 °F 62% 29.66 in 10.0 mi SSW 6.9 mph - N/A   Clear
9:53 AM 66.0 °F - 45.0 °F 47% 29.65 in 10.0 mi WSW 3.5 mph - N/A   Clear
10:53 AM 70.0 °F - 43.0 °F 38% 29.62 in 10.0 mi South 11.5 mph - N/A   Clear
11:53 AM 73.0 °F - 44.1 °F 35% 29.58 in 10.0 mi SSE 10.4 mph - N/A   Clear
12:53 PM 75.9 °F - 41.0 °F 29% 29.54 in 10.0 mi SSE 10.4 mph 19.6 mph N/A   Clear
1:53 PM 80.1 °F - 45.0 °F 29% 29.47 in 10.0 mi SSE 20.7 mph 27.6 mph N/A   Clear
2:53 PM 82.0 °F - 42.1 °F 24% 29.44 in 10.0 mi South 25.3 mph 36.8 mph N/A   Clear
3:53 PM 82.9 °F - 30.9 °F 15% 29.42 in 10.0 mi South 25.3 mph 38.0 mph N/A   Clear
4:53 PM 82.9 °F - 35.1 °F 18% 29.40 in 10.0 mi South 23.0 mph 39.1 mph N/A   Clear
5:53 PM 80.1 °F - 34.0 °F 19% 29.39 in 10.0 mi South 20.7 mph - N/A   Clear
6:53 PM 73.9 °F - 37.9 °F 27% 29.42 in 10.0 mi South 20.7 mph - N/A   Clear
7:53 PM 68.0 °F - 41.0 °F 37% 29.42 in 10.0 mi South 18.4 mph 25.3 mph N/A   Clear
8:53 PM 68.0 °F - 45.0 °F 43% 29.40 in 10.0 mi South 21.9 mph - N/A   Clear
9:53 PM 64.9 °F - 45.0 °F 48% 29.40 in 10.0 mi South 20.7 mph 25.3 mph N/A   Clear
10:53 PM 62.1 °F - 43.0 °F 50% 29.41 in 10.0 mi South 21.9 mph - N/A   Clear
11:53 PM 66.0 °F - 37.0 °F 34% 29.39 in 10.0 mi SSW 24.2 mph 28.8 mph N/A   Clear